This demonstration page uses our WeatherBlox Daily Observations layout. Learn more.

Left ArrowRight Arrow

44.89941, -97.11507

Hourly Observations for June 15, 2016

Temp ( °F °C ) Dew Point ( °F °C ) Humidity (%) Winds ( mph kmh ) Pressure ( in mb ) Visibility ( mi km ) Precip ( " mm )
12:18 am 00:18 Mostly Clear 61 16.1 58 14.4 90 90 W 8 13 29.65 1004 10 16 0.00 0.00
12:53 am 00:53 Mostly Clear 61 16.1 57 13.9 87 87 W 13 20 29.66 1004 10 16 0.00 0.00
1:15 am 01:15 Mostly Cloudy 61 16.1 57 13.9 87 87 W 10 17 29.68 1005 10 16 0.00 0.00
1:53 am 01:53 Mostly Cloudy 61 16.1 57 13.9 87 87 WNW 8 13 29.67 1005 10 16 0.00 0.00
2:26 am 02:26 Partly Cloudy 59 15 56 13.3 90 90 W 9 15 29.65 1004 10 16 0.00 0.00
2:53 am 02:53 Clear 59 15 56 13.3 90 90 W 10 17 29.66 1005 10 16 0.00 0.00
3:29 am 03:29 Partly Cloudy 58 14.4 55 12.8 90 90 W 13 20 29.65 1004 10 16 0.00 0.00
3:37 am 03:37 Mostly Cloudy 58 14.4 56 13.3 93 93 W 14 22 29.65 1004 10 16 0.00 0.00
3:53 am 03:53 Cloudy 58 14.4 56 13.3 93 93 W 12 19 29.67 1005 10 16 0.00 0.00
4:53 am 04:53 Cloudy 58 14.4 55 12.8 90 90 WNW 9 15 29.69 1005 10 16 0.00 0.00
5:53 am 05:53 Cloudy 58 14.4 55 12.8 90 90 W 14 22 29.72 1006 10 16 0.00 0.00
6:53 am 06:53 Cloudy 58 14.4 56 13.3 93 93 WNW 14 22 29.76 1008 10 16 0.00 0.00
7:08 am 07:08 Cloudy 58 14.4 56 13.3 93 93 WNW 12 19 29.74 1007 10 16 0.00 0.00
7:37 am 07:37 Cloudy 59 15 56 13.3 90 90 W 10 17 29.77 1008 10 16 0.00 0.00
7:53 am 07:53 Cloudy 60 15.6 56 13.3 86 86 W 10 17 29.78 1009 10 16 0.00 0.00
8:04 am 08:04 Mostly Cloudy 61 16.1 56 13.3 84 84 W 12 19 29.77 1008 10 16 0.00 0.00
8:31 am 08:31 Mostly Sunny 63 17.2 57 13.9 81 81 WNW 13 20 29.77 1008 10 16 0.00 0.00
8:53 am 08:53 Sunny 64 17.8 57 13.9 78 78 WNW 14 22 29.78 1008 10 16 0.00 0.00
9:10 am 09:10 Mostly Cloudy 64 17.8 58 14.4 81 81 NW 14 22 29.77 1008 10 16 0.00 0.00
9:53 am 09:53 Mostly Cloudy 65 18.3 57 13.9 76 76 NW 12 19 29.80 1009 10 16 0.00 0.00
10:06 am 10:06 Mostly Sunny 66 18.9 58 14.4 75 75 NW 14 22 29.80 1009 10 16 0.00 0.00
10:38 am 10:38 Mostly Cloudy 68 20 58 14.4 70 70 NW 14 22 29.77 1008 10 16 0.00 0.00
10:53 am 10:53 Mostly Cloudy 68 20 58 14.4 70 70 NW 15 24 29.81 1009 10 16 0.00 0.00
11:02 am 11:02 Partly Cloudy 69 20.6 59 15 70 70 NW 17 28 29.77 1008 10 16 0.00 0.00
11:53 am 11:53 Mostly Sunny 71 21.7 59 15 66 66 NW 17 28 29.82 1010 10 16 0.00 0.00
12:53 pm 12:53 Sunny 73 22.8 60 15.6 64 64 NW 14 22 29.83 1010 10 16 0.00 0.00
1:53 pm 13:53 Sunny 76 24.4 61 16.1 60 60 NW 14 22 29.84 1010 10 16 0.00 0.00
2:53 pm 14:53 Sunny 77 25 60 15.6 56 56 NW 15 24 29.85 1011 10 16 0.00 0.00
3:53 pm 15:53 Sunny 78 25.6 60 15.6 54 54 NNW 14 22 29.85 1011 10 16 0.00 0.00
4:53 pm 16:53 Sunny 77 25 59 15 54 54 N 14 22 29.85 1011 10 16 0.00 0.00
5:53 pm 17:53 Sunny 77 25 59 15 54 54 N 15 24 29.86 1011 10 16 0.00 0.00
6:53 pm 18:53 Sunny 77 25 58 14.4 52 52 N 9 15 29.86 1011 10 16 0.00 0.00
7:53 pm 19:53 Sunny 75 23.9 58 14.4 55 55 NE 12 19 29.87 1012 10 16 0.00 0.00
8:53 pm 20:53 Sunny 71 21.7 59 15 66 66 NE 7 11 29.88 1012 10 16 0.00 0.00
9:53 pm 21:53 Clear 69 20.6 59 15 70 70 ENE 8 13 29.90 1012 10 16 0.00 0.00
10:53 pm 22:53 Clear 68 20 59 15 73 73 E 5 7 29.89 1012 10 16 0.00 0.00
11:53 pm 23:53 Clear 65 18.3 59 15 81 81 ESE 3 6 29.89 1012 10 16 0.00 0.00

Powered by AerisWeather